Change the Weather History Date:

Sunday, February 16, 2014

  Actual Average Record
Temperature  
Mean Temperature 37 °F 23 °F  
Max Temperature 43 °F 35 °F 62 °F (1981)
Min Temperature 30 °F 10 °F -51 °F (1936)
Degree Days  
Heating Degree Days 28 42  
Month to date heating degree days 905 707  
Since 1 July heating degree days 5752 5637  
Cooling Degree Days 0 0  
Month to date cooling degree days 0 0  
Year to date cooling degree days 0 0  
Moisture  
Dew Point 27 °F    
Average Humidity 50    
Maximum Humidity 82    
Minimum Humidity 18    
Precipitation  
Precipitation 0.00 in 0.01 in 0.27 in (2008)
Month to date precipitation 0.21 0.12  
Year to date precipitation 0.43 0.35  
Snow  
Snow 0.00 in - - ()
Month to date snowfall 0.0  
Since 1 July snowfall 0.0  
Snow Depth 0.00 in    
Sea Level Pressure  
Sea Level Pressure 29.63 in    
Wind  
Wind Speed 7 mph (West)    
Max Wind Speed 21 mph    
Max Gust Speed 25 mph    
T = Trace of Precipitation, MM = Missing Value Source: NWS Daily Summary

Daily Weather History Graph

Daily Weather History Graph

Search for Another Location

Airport or City:

Trip Planner

Search our weather history database for the weather conditions in past years. The results will help you decide how hot, cold, wet, or windy it might be!

Date:

Astronomy

Feb. 16, 2014 Rise Set
Actual Time 7:11 AM MST 5:33 PM MST
Civil Twilight 6:39 AM MST 6:04 PM MST
Nautical Twilight 6:03 AM MST 6:40 PM MST
Astronomical Twilight 5:28 AM MST 7:16 PM MST
Moon 7:44 PM MST (2/16) 7:32 AM MST (2/16)
Length of Visible Light 11h 25m
Length of Day
10h 22m
Full, 97% of the Moon is Illuminated
Feb 16
Full
Feb 22
Last Quarter
Mar 1
New
Mar 8
First Quarter
Mar 16
Full

Hourly Weather History & Observations

Time (MST) Temp. Windchill Dew Point Humidity Pressure Visibility Wind Dir Wind Speed Gust Speed Precip Events Conditions
12:48 AM 35.1 °F 26.9 °F 28.0 °F 76% 29.69 in - ESE 11.5 mph - N/A   Unknown
1:48 AM 34.0 °F 27.2 °F 28.0 °F 79% 29.64 in - SE 8.1 mph - N/A   Unknown
2:48 AM 35.1 °F 27.9 °F 27.0 °F 72% 29.60 in - SE 9.2 mph - N/A   Unknown
3:48 AM 34.0 °F 28.0 °F 27.0 °F 75% 29.56 in - SE 6.9 mph - N/A   Unknown
4:48 AM 34.0 °F 29.8 °F 27.0 °F 75% 29.55 in - SE 4.6 mph - N/A   Unknown
5:48 AM 34.0 °F 28.8 °F 27.0 °F 75% 29.52 in - SSE 5.8 mph - N/A   Unknown
6:48 AM 37.0 °F - 28.0 °F 70% 29.50 in - Calm Calm - N/A   Unknown
7:48 AM 34.0 °F 31.0 °F 28.0 °F 79% 29.48 in - ENE 3.5 mph - N/A   Unknown
8:48 AM 34.0 °F - 28.9 °F 82% 29.49 in - Calm Calm - N/A   Unknown
9:48 AM 37.0 °F - 30.9 °F 79% 29.47 in - Calm Calm - N/A   Unknown
10:48 AM 39.0 °F 33.4 °F 32.0 °F 76% 29.50 in - West 8.1 mph - N/A   Unknown
11:48 AM 42.1 °F 37.7 °F 33.1 °F 70% 29.52 in - NW 6.9 mph - N/A   Unknown
12:48 PM 42.1 °F 39.2 °F 33.1 °F 70% 29.55 in - West 4.6 mph - N/A   Unknown
1:48 PM 41.0 °F 35.2 °F 32.0 °F 70% 29.57 in - WNW 9.2 mph - N/A   Unknown
2:48 PM 37.9 °F 35.5 °F 32.0 °F 79% 29.61 in - WNW 3.5 mph - N/A   Unknown
3:48 PM 37.9 °F 35.5 °F 30.9 °F 76% 29.65 in - West 3.5 mph - N/A   Unknown
4:48 PM 37.9 °F 32.1 °F 27.0 °F 65% 29.68 in - West 8.1 mph - N/A   Unknown
5:48 PM 35.1 °F 29.3 °F 27.0 °F 72% 29.70 in - WNW 6.9 mph - N/A   Unknown
6:48 PM 35.1 °F 27.4 °F 26.1 °F 70% 29.73 in - WNW 10.4 mph - N/A   Unknown
7:48 PM 37.0 °F 27.4 °F 21.0 °F 52% 29.77 in - WNW 17.3 mph - N/A   Unknown
8:48 PM 35.1 °F 25.9 °F 21.0 °F 57% 29.79 in - West 13.8 mph - N/A   Unknown
9:48 PM 33.1 °F 25.5 °F 21.0 °F 61% 29.82 in - West 9.2 mph - N/A   Unknown
10:48 PM 33.1 °F 24.9 °F 19.9 °F 59% 29.82 in - West 10.4 mph - N/A   Unknown
11:48 PM 30.0 °F 22.4 °F 21.0 °F 69% 29.83 in - West 8.1 mph - N/A   Unknown